User: anonymous   Login
Location: Bishopstone
(51.0167°N, 1.9000°W)
Time: 09:28:09
(UTC+00:00)
Language:

NOAA 15 - Orbit

View from above orbital plane
View from above orbital plane
View from above satellite
View from above satellite

Ground track
Ground track

The orbit data is extracted from the following two-line orbital elements,

1 25338U 98030A   20025.80027523  .00000011  00000-0  23203-4 0  9993
2 25338  98.7309  51.4790 0009757 325.1020  34.9519 14.25948673128759
Epoch (UTC): 25 January 2020 19:12:23
Eccentricity: 0.0009757
inclination: 98.7309°
perigee height: 798 km
apogee height: 812 km
right ascension of ascending node: 51.4790°
argument of perigee: 325.1020°
revolutions per day: 14.25948673
mean anomaly at epoch: 34.9519°
orbit number at epoch: 12875

The dashed part of the orbit path shows where the satellite is in the earth's shadow,  

DLR